Regional Weather Roundup
Issued by NWS

Home | Current Version | Previous Version | Graphics & Text | Print | Product List | Glossary Off
Versions: 1 2 3 4 5 6 7 8 9 10 11 12 13 14 15 16 17 18 19 20 21 22 23 24 25 26 27 28 29 30 31 32 33 34 35 36 37 38 39 40 41 42 43 44 45 46 47 48 49 50

000
ASUS44 KEWX 040503
RWRTX
SOUTH TEXAS REGIONAL WEATHER ROUNDUP
NATIONAL WEATHER SERVICE AUSTIN/SAN ANTONIO TX
1100 PM CST SAT DEC 03 2016

NOTE: "FAIR" INDICATED FEW OR NO CLOUDS BELOW 12,000 FEET WITH NO
SIGNIFICANT WEATHER AND/OR OBSTRUCTIONS TO VISIBILITY.

* - THESE STATIONS ARE NOT NWS OR FAA STATIONS...AND ARE NOT SUBJECT
    TO NWS AND FAA QUALITY CONTROL.

TXZ171-172-183>190-040600-
TEXAS HILL COUNTRY AND EDWARDS PLATEAU

CITY           SKY/WX    TMP DP  RH WIND       PRES   REMARKS
JUNCTION       CLOUDY    48  47  96 NE6       29.95S WCI  45
*LLANO         CLOUDY    50  50 100 CALM      29.98S FOG
BURNET         CLOUDY    48  47  96 NE8       29.94F WCI  44
*HORSESHOE BAY CLOUDY    49  49  98 CALM      29.95R FOG
*KERRVILLE     CLOUDY    49  47  95 N10       29.91S WCI  44
*FREDERICKSBRG CLOUDY    47  46  95 N9        29.93F WCI  43
*ROCKSPRINGS   FOG       46  46 100 N8        29.95R VSB 1/4 WCI  42
*BOERNE STAGE  CLOUDY    46  46 100 N9        29.89F WCI  42
*CASTROVILLE   CLOUDY    52  51  97 N7        29.89F
HONDO          CLOUDY    52  50  93 N12       29.88S
*UVALDE        CLOUDY    53  51  92 CALM      29.93R
DEL RIO        CLOUDY    51  51 100 N9        29.94S
LAUGHLIN AFB   PTCLDY    52  45  77 N10       29.94R
CARRIZO SPRGS  CLOUDY    54  54 100 NE6       29.90R FOG
*EAGLE PASS    CLOUDY    54  52  94 NW10      29.93R FOG
$$

TXZ173-191>194-202-209-217>225-228-040600-
CENTRAL AND SOUTH CENTRAL TEXAS

CITY           SKY/WX    TMP DP  RH WIND       PRES   REMARKS
GEORGETOWN     CLOUDY    50  46  87 NE5       29.93F WCI  48
AUSTIN/BERGSTM CLOUDY    52  50  93 N7        29.95R
AUSTIN/MABRY   CLOUDY    51  49  92 N5        29.96R
*AUSTIN/EXEC   CLOUDY    50  50 100 N7        29.96R WCI  47
*LAGO VISTA    FOG       49  48  97 NE10G20   29.89F VSB 3/4 WCI  45
SAN MARCOS     CLOUDY    52  48  87 NE15      29.92F
NEW BRAUNFELS  LGT RAIN  51  49  92 E18       29.84F
RANDOLPH AFB   DRIZZLE   51  51 100 N13       29.87R
PT SAN ANTONIO CLOUDY    52  50  93 NE12      29.84R
SAN ANTONIO    CLOUDY    51  49  92 N14G23    29.88F
STINSON FIELD  CLOUDY    53  50  89 N14       29.86F
*PLEASANTON    CLOUDY    52  51  95 NW9       29.89R
*LA GRANGE     CLOUDY    52  51  96 N6        29.89F
*GIDDINGS      CLOUDY    49  48  97 N7        29.96F WCI  46
*GONZALES      LGT RAIN  52  52 100 NE12G20   29.88F
$$

TXZ163>164-176>182-195>201-210>213-226-227-235-040600-
SOUTHEAST TEXAS

CITY           SKY/WX    TMP DP  RH WIND       PRES   REMARKS
COLLEGE STN    CLOUDY    51  50  96 N9        29.93R
*BRYAN         CLOUDY    49  49 100 MISG      29.95R
*CALDWELL      NOT AVBL
*CROCKETT      CLOUDY    48  46  93 N5        29.95R WCI  46
*BRENHAM       CLOUDY    52  51  98 N9        29.91F
HUNTSVILLE     CLOUDY    50  48  93 N6        29.91R WCI  48
CONROE         CLOUDY    51  50  96 NW9       29.91R
HOUSTON BUSH   CLOUDY    53  51  93 N6        29.85R
HOUSTON HOBBY  CLOUDY    54  53  97 VRB6      29.84F
*HOUSTON SW AP LGT RAIN  54  52  95 CALM      29.85R
PEARLAND       CLOUDY    56  53  90 SE6       29.85R
HOUSTON HOOKS  CLOUDY    53  51  93 NW9       29.91R
ELLINGTON FLD  CLOUDY    55  54  94 E6        29.85F
SUGAR LAND     LGT RAIN  53  53 100 NW5       29.88R
*HOUSTON EXEC    N/A     52  50  93 NW10      29.91R
*CLEVELAND MUN CLOUDY    51  50  96 CALM      29.86R
*WHARTON       CLOUDY    54  52  95 NW12      29.91R
*COLUMBUS      CLOUDY    52  50  93 NW12      29.93R
*EAGLE LAKE    CLOUDY    54  54  99 N8        29.90R
$$

TXZ214>216-236>238-040600-
THE UPPER TEXAS COAST

CITY           SKY/WX    TMP DP  RH WIND       PRES   REMARKS
*ORANGE        LGT RAIN N/A N/A N/A NE5       29.87F
PORT ARTHUR    CLOUDY    53  51  93 N10       29.84F
GALVESTON      CLOUDY    57  56  96 NE9       29.85F
ANGLETON       CLOUDY    56  55  97 S6        29.86S FOG
*BAY CITY      LGT RAIN  56  56  98 CALM      29.87R
PALACIOS       TSTM      56  54  93 SE14      29.86R FOG
$$

TXZ229>234-239>247-040600-
TEXAS COASTAL BEND AND RIO GRANDE PLAINS

CITY           SKY/WX    TMP DP  RH WIND       PRES   REMARKS
VICTORIA       RAIN      53  52  96 N12       29.92R
*BEEVILLE      RAIN      49  49 100 N10       29.90R WCI  44
ROCKPORT         N/A    N/A N/A N/A MISG      29.85R
*PORT ARANSAS  CLOUDY    62  61  94 E8        29.86F
*PORT LAVACA   CLOUDY    55  55 100 NW13      29.89R
*INGLESIDE     TSTM      62  60  93 E13G18    29.85R
CORPUS CHRISTI TSTM      63  62  97 E13       29.85R FOG
CORPUS NAS     TSTM      64  63  96 NE13      29.84F
*ROBSTOWN      TSTM      63  63  99 SE10      29.86R
ALICE          LGT RAIN  57  56  96 NE16      29.82F
KINGSVILLE NAS TSTM      63  63 100 E12G25    29.81F FOG
COTULLA        CLOUDY    57  53  86 N8        29.90R
*FAITH RANCH   CLOUDY    57  57 100 N7        29.91R FOG
LAREDO         LGT RAIN  56  55  97 NW8       29.90R FOG
$$

TXZ248>255-040600-
DEEP SOUTH TEXAS

CITY           SKY/WX    TMP DP  RH WIND       PRES   REMARKS
BROWNSVILLE    RAIN      66  65  96 N9        29.82F
PORT ISABEL    LGT RAIN  69  68  96 N14       29.81R
*SOUTH PADRE     N/A     73  72  94 N8        29.82R VSB 3/4
HARLINGEN      LGT RAIN  62  62 100 NE9       29.82S
*HEBBRONVILLE  CLOUDY    57  56  97 NW5       29.86R FOG
MCALLEN        CLOUDY    62  57  83 NE13      29.81F
*WESLACO       CLOUDY    60  56  88 N9G17     29.83F
FALFURRIAS     CLOUDY    61  60  95 E8        29.82R
EDINBURG       CLOUDY    61  56  85 NE10      29.82F
*ZAPATA        NOT AVBL
$$

TXZ213>215-236>238-242>244-246-247-251-254-255-040600-
CMAN STATIONS

STATION/POSITION TIME  TEMP    WIND        PRES    WAVE
                       AIR SEA DIR/SP/G            HT/PER
                 (UTC) (F)     (DEG/KT/KT) (MB)    (FT/S)
SABINE PASS      0424   55 63  340/  9/ 12 1013.2
SEA RIM ST PARK  0400   54     350/  9/ 11 1012.3
NORTH JETTY/GLS  0430   55 63   20/ 13/ 15   N/A
EAGLE POINT      0430   56 61   60/ 14/ 17 1010.2
MORGANS POINT    0424   54 64   60/ 12/ 13 1010.0
PORT O`CONNOR    0430   61     110/  8/ 11 1011.2
PORT ARANSAS     0400   62 67  320/ 12/ 14 1012.0
MALAQUITE BEACH  0430   64 69   20/ 15/ 18 1011.2
BAFFIN BAY       0430   62 68   20/  7/ 12 1011.2
PORT ISABEL      0430   72 76  350/ 11/ 15 1009.4
$$

GMZ080-GMZ150>470-040600-
OFFSHORE BUOY REPORTS

STATION/POSITION TIME  TEMP    WIND        PRES    WAVE
                       AIR SEA DIR/SP/G            HT/PER
                 (UTC) (F)     (DEG/KT/KT) (MB)    (FT/S)
20 E GALVESTON   0350   58 68  350/ 17/ 21 1010.5    5/ 7
90 E PT ARANSAS  0350   68 77   10/ 17/ 21 1010.6    7/ 8
35 NE PT MANSFLD 0350   69 75   40/ 21/ 23 1009.0    9/ 8
200 E PT ISABEL  0350   79 78  160/ 14/ 16 1010.9    7/ 8
$$




USA.gov is the U.S. government's official web portal to all federal, state and local government web resources and services.